Regional Weather Roundup
Issued by NWS Wakefield, VA

Home | Current Version | Previous Version | Text Only | Print | Product List | Glossary On
Versions: 1 2 3 4 5 6 7 8 9 10 11 12 13 14 15 16 17 18 19 20 21 22 23 24 25 26 27 28 29 30 31 32 33 34 35 36 37 38 39 40 41 42 43 44 45 46 47 48 49 50
000
ASUS41 KAKQ 240214
RWRAKQ

REGIONAL WEATHER ROUNDUP
NATIONAL WEATHER SERVICE WAKEFIELD VA
900 PM EST THU FEB 23 2017

Note: "fair" indicates few or no clouds below 12,000 feet with no
significant weather and/or obstructions to visibility. * = Denotes
station may not report precipitation (e.g., rain,snow,etc.),
thunder or fog.

VAZ042-051-052>054-056-240300-
NORTHERN VIRGINIA

CITY           SKY/WX    TMP DP  RH WIND       PRES   REMARKS
WASH NATIONAL  PTCLDY    63  52  67 S10       29.88R
DULLES         PTCLDY    65  51  60 S8        29.86S
FORT BELVOIR   CLEAR     61  50  68 S3        29.88R
QUANTICO       CLEAR     58  50  75 S7        29.89R
FREDERICKSBRG* CLEAR     62  52  70 S7        29.88S
STAFFORD*      CLEAR     64  51  64 S3        29.93R
WARRENTON      CLOUDY    65  48  54 S7        29.87S
CULPEPER*      CLEAR     58  52  79 S3        29.89R
MANASSAS*        N/A     61  50  67 S5        29.88R
LEESBURG*      CLEAR     64  54  68 MISG      29.87S
WINCHESTER     CLEAR     61  50  67 S6        29.85S
FRONT ROYAL*   NOT AVBL
LURAY*         NOT AVBL
$$

VAZ048-049-060>072-079>083-240300-
CENTRAL AND SOUTH CENTRAL VIRGINIA

CITY           SKY/WX    TMP DP  RH WIND       PRES   REMARKS
RICHMOND       CLEAR     60  52  74 S8        29.92R
CHESTERFIELD*  FAIR      55  37  50 S5        29.94R
PETERSBURG*    CLEAR     60  51  73 CALM      29.93R
HANOVER        CLEAR     62  49  62 VRB6      29.92R
TAPPAHANNOCK*  CLEAR     62  44  51 SE3       29.92S
QUINTON*       NOT AVBL
CHARLOTTSVILLE CLEAR     63  52  67 S9        29.88S
GORDONSVILLE*  NOT AVBL
ORANGE*        CLEAR     55  50  82 CALM      29.90S
LOUISA*        CLEAR     66  55  68 S3        29.89R
BUMPASS*       NOT AVBL
FARMVILLE*     CLEAR     62  54  74 SW3       29.90R
CREWE*         NOT AVBL
FORT PICKETT*  NOT AVBL
CHASE CITY*    NOT AVBL
CLARKSVILLE*   NOT AVBL
SOUTH HILL*    CLEAR     53  50  90 CALM      29.98R
LAWRENCEVILLE* NOT AVBL
EMPORIA*       CLEAR     55  50  82 CALM      29.95R
$$

VAZ088>098-240300-
SOUTHEAST VIRGINIA

CITY           SKY/WX    TMP DP  RH WIND       PRES   REMARKS
NORFOLK        CLEAR     61  53  75 S6        29.93S
VIRGINIA BEACH CLOUDY    57  51  80 S7        29.94S
NORFOLK NAVAL  CLEAR     62  53  72 SE6       29.95S
WEST POINT*    CLEAR     60  51  71 SE5       29.94R
SALUDA*        NOT AVBL
NEWPORT NEWS   CLEAR     62  54  74 SE7       29.93S
LANGLEY AFB    CLEAR     61  55  79 S7        29.93S
FORT EUSTIS    CLEAR     61  53  75 SE5       29.91R
WILLIAMSBURG*  CLEAR     63  55  77 S6        29.94R
HR EXEC AP*    NOT AVBL
FRANKLIN*      CLEAR     61  54  77 SE5       29.94R
US460-WAKEFLD  CLEAR     61  54  77 CALM      29.93R
$$

VAZ020-022-025-037-045-240300-
WEST CENTRAL AND SOUTHWEST VIRGINIA

CITY           SKY/WX    TMP DP  RH WIND       PRES   REMARKS
STAUNTON*      CLEAR     55  48  79 CALM      29.91R
WAYNESBORO*    NOT AVBL
HOT SPRINGS VA CLEAR     54  45  71 CALM      29.96R
LYNCHBURG      CLEAR     54  52  94 S3        29.92S
DANVILLE       CLOUDY    57  53  86 CALM      29.91R
SOUTH BOSTON*  NOT AVBL
MARTINSVILLE   CLOUDY    56  53  92 CALM      29.94R
ROANOKE        PTCLDY    63  51  65 CALM      29.93R
BLACKSBURG     CLOUDY    59  51  75 CALM      29.96S
DUBLIN*        CLOUDY    60  51  71 CALM      29.94S
MARION*        CLEAR     56  51  82 CALM      29.96R
HILLSVILLE*    PTCLDY    57  52  82 CALM      29.93S
RICHLANDS*     FAIR      59  50  73 SE5       29.90F
WISE*          CLEAR     61  48  63 CALM      29.90S
ABINGDON*      CLEAR     63  51  64 S5        29.89S
$$

MDZ021>025-VAZ099-100-240300-
SOUTHERN MARYLAND AND THE DELMARVA PENINSULA

CITY           SKY/WX    TMP DP  RH WIND       PRES   REMARKS
PATUXENT RIVER CLEAR     61  54  77 S7        29.90R
BAY BRIDGE APT CLEAR     57  52  82 S10       29.89R
LEONARDTOWN    CLEAR     61  52  72 S5        29.92R
DOVER          CLEAR     60  56  86 S9        29.89S
GEORGETOWN     CLEAR     59  51  75 S10       29.93R
EASTON         CLEAR     63  52  67 S7        29.94R
CAMBRIDGE      CLEAR     57  52  82 S9        29.92R
SALISBURY      CLEAR     57  52  83 S8        29.93R
OCEAN CITY     CLEAR     54  50  86 S5        29.95R
WALLOPS ISLAND CLEAR     55  52  89 S12       29.96R
ACCOMACK*      CLEAR     58  53  83 S9        29.95R
$$

NCZ012>017-030>032-240300-
NORTH CENTRAL AND EASTERN NORTH CAROLINA

CITY           SKY/WX    TMP DP  RH WIND       PRES   REMARKS
ROANOKE RAPIDS FAIR      61  54  77 S3        29.93R
RALEIGH        PTCLDY    59  49  69 CALM      29.92R
ELIZABETH CITY MOCLDY    57  54  89 SE3       29.95S
AHOSKIE*         N/A     59  54  82 CALM      29.93S
EDENTON*       MOCLDY    58  54  85 CALM      29.95S
CURRITUCK*     MOCLDY    57  57  99 CALM      29.96S
KILL DEVIL HLS NOT AVBL
MANTEO         MOCLDY    55  53  93 CALM      29.95S
CAPE HATTERAS  CLOUDY    68  59  73 SE8       29.94R HAZE
TARBORO*       NOT AVBL
GOLDSBORO      CLEAR     62  58  84 CALM      29.91R
WASHINGTON     PTCLDY    57  54  88 CALM      29.94S
GREENVILLE     CLEAR     61  57  88 SE3       29.95S
NEW BERN       MOCLDY    56  56 100 CALM      29.94R
WILMINGTON     MOCLDY    60  58  92 NE3       29.91R
$$

VAZ048-240300-
ELSEWHERE

CITY           SKY/WX    TMP DP  RH WIND       PRES   REMARKS
HARRISBURG PA  CLOUDY    64  52  64 S7        29.84R
BALTIMORE      PTCLDY    59  51  75 CALM      29.87R
ANNAPOLIS      CLEAR     54  49  83 S9        29.88R
ANDREWS AFB    CLEAR     63  51  64 S8        29.88R
PHILADELPHIA   PTCLDY    63  51  65 SW9       29.89R
HENDERSON NC   CLEAR     60  47  63 S5        29.92R
GREENSBORO     PTCLDY    64  51  62 CALM      29.91R
ROCKY MOUNT    CLEAR     59  54  83 CALM      29.93R
$$

VAZ100-240300-
MARINE

STATION/POSITION TIME  TEMP    WIND        PRES    WAVE   SWELL
                       AIR SEA DIR/SP/G            HT/PER HT/PER
                 (UTC) (F)     (DEG/KT/KT) (MB)    (FT/S) (FT/S)
CAPE MAY NJ      0142   54 45  160/ 11/ 12 1012.8S
LEWES DE         0142   60 45  190/  5/  7 1013.2R
OCEAN-CITY-INLET 0142   47 44  220/  7/  7 1014.4R
WACHAPREAGUE VA  0142   55 54  220/  4/  7 1014.1R
THOMAS POINT MD  0100   54 45  170/ 20/ 21   N/A
GOOSES REEF MD   0150   49     160/ 12/ 14 1012.8R
COVE POINT MD    0142   51     190/ 14/ 14 1013.0R
SOLOMONS ISLAND  0142   56 46  170/  8/  9   N/A
BISHOPS HEAD MD  0142   50 52  160/  7/  7 1013.5R
PINEY POINT MD   0148          170/ 11/ 12   N/A
POTOMAC MD       0150   52     190/  8/  8 1012.2R
CAMBRIDGE MD     0142   59 42  170/  7/ 12 1012.1R
LEWISETTA VA     0142   59 47  190/  6/  7 1012.6R
RAPPAHANNOCK LGT 0148          150/ 13/ 13 1014.2R
YORK RVR RNG VA  0142   55     180/ 13/ 14 1012.7R
YORKTOWN VA      0142   63 47  170/  8/ 10 1013.0S
JAMESTOWN VA     0150   59     140/  4/  6   N/A
DOMINION TERM VA 0142   57     150/  8/  8 1013.5S
KIPTOPEKE VA     0148      49  170/ 11/ 11   N/A
CHES BAY BRIDGE  0142   59 47  170/ 10/ 12 1013.8R
CAPE HENRY VA    0142   61     170/  7/ 10   N/A
WILLOUBY STN VA  0142   62     160/ 13/ 14 1014.4F
S CRANEY ISL VA  0142   61     240/  1/  4 1013.5R
CAPE HENRY BUOY  0142      50                N/A     2/11   2/11
OFFSHORE WE BUOY 0151      49                N/A     3/11   2/11
64NM E OF VA BCH 0050   58 54  170/  6/  8 1014.1    3/10   3/10
DUCK PIER NC     0142   56 50  140/  6/  6 1013.6R
44100 DUCK FRF   0135      50                N/A     3/11   2/11
44056 DUCK FRF   0130      51                N/A     3/11   2/11
OREGON INLET NC  0148           80/  4/  5 1013.9R
HATTERAS NC      0142   66 62  190/  3/  8 1013.3R
DIAMOND SHLS NC  0050   70 74  130/ 12/ 16 1013.3    6/ 6   3/11
CAPE LOOKOUT NC  0100   66     120/  9/ 10 1012.5R
$$



USA.gov is the U.S. government's official web portal to all federal, state and local government web resources and services.